Retour au catalogue

PEGASUS DEB

ActifPO
NORAD 29033·DEBRIS·🇺🇸 United States

Lancé May 19, 1994 depuis Vandenberg Space Force Base

Loading…

Prochains Passages (prochaines 24 heures)

TLE

FraisSource: Space-Track

Époque: Sep 14, 2026, 14:57 UTC

1 29033U 94029AEQ 26257.62337060  .00007690  00000-0  95365-3 0  9993
2 29033  81.9594 219.6061 0155824 103.8931 257.9666 14.74209572242291

Suivez PEGASUS DEB en temps réel avec AllMySat

Download on the App Store